EA8FO Weather Reports


Display with metric or nautical units.
time (UTC)temp
F
wind
direction
speed
MPH
gust
MPH
rain 1hr
in
rain 24hr
in
rain mn
in
humidity
%
barometer
mb
20260505041524 63 309 0.0 1.0 0.00 0.00 0.00 85 1014.1
20260505040018 63 330 0.0 1.0 0.00 0.00 0.00 85 1014.1
20260505034523 64 77 0.0 1.0 0.00 0.00 0.00 85 1014.2
20260505033022 64 77 0.0 1.0 0.00 0.00 0.00 84 1014.2
20260505031522 64 77 0.0 1.0 0.00 0.00 0.00 83 1014.3
20260505030029 64 77 0.0 1.0 0.00 0.00 0.00 83 1014.4
20260505024522 65 229 0.0 1.0 0.00 0.00 0.00 83 1014.3
20260505023025 65 229 0.0 1.0 0.00 0.00 0.00 82 1014.4
20260505021508 66 227 0.0 1.0 0.00 0.00 0.00 83 1014.6
20260505020012 65 227 0.0 1.0 0.00 0.00 0.00 82 1014.9
20260505014517 66 227 0.0 1.0 0.00 0.00 0.00 82 1015.2
20260505013023 66 354 0.0 1.0 0.00 0.00 0.00 82 1015.2
20260505011504 66 344 0.0 1.0 0.00 0.00 0.00 82 1015.4
20260505010011 65 340 0.0 1.0 0.00 0.00 0.00 81 1015.6
20260505004529 65 67 0.0 1.0 0.00 0.00 0.00 81 1015.7
20260505003021 65 335 0.0 1.0 0.00 0.00 0.00 80 1015.8
20260505001524 66 341 0.0 2.0 0.00 0.00 0.00 80 1016.3
20260505000007 66 33 0.0 2.0 0.00 0.00 0.00 77 1016.2
20260504234525 66 95 0.0 2.0 0.00 0.00 0.00 77 1016.2
20260504233018 66 91 0.0 3.0 0.00 0.00 0.00 80 1016.2
20260504231537 67 210 0.0 1.0 0.00 0.00 0.00 83 1016.5
20260504230024 67 210 0.0 1.0 0.00 0.00 0.00 83 1016.6
20260504224507 67 181 0.0 1.0 0.00 0.00 0.00 82 1016.5
20260504223014 67 142 0.0 1.0 0.00 0.00 0.00 81 1016.4
20260504221518 67 207 0.0 1.0 0.00 0.00 0.00 80 1016.3
20260504220026 68 201 1.0 2.0 0.00 0.00 0.00 79 1016.4
20260504214512 68 303 1.0 2.0 0.00 0.00 0.00 78 1016.2
20260504213012 68 299 1.0 4.0 0.00 0.00 0.00 77 1016.2
20260504211516 68 278 2.0 4.0 0.00 0.00 0.00 77 1016.3
20260504210022 68 262 2.0 4.0 0.00 0.00 0.00 76 1016.0
20260504204551 68 307 1.0 3.0 0.00 0.00 0.00 76 1015.6
20260504203012 68 308 0.0 4.0 0.00 0.00 0.00 76 1015.5
20260504201514 69 293 2.0 4.0 0.00 0.00 0.00 76 1015.5
20260504200023 69 300 2.0 5.0 0.00 0.00 0.00 76 1015.2
20260504194603 69 293 2.0 6.0 0.00 0.00 0.00 76 1015.2
20260504193055 70 274 2.0 6.0 0.00 0.00 0.00 74 1015.2
20260504191751 71 302 2.0 7.0 0.00 0.00 0.00 70 1015.1
20260504190203 73 248 3.0 8.0 0.00 0.00 0.00 68 1014.8
20260504184637 73 85 2.0 6.0 0.00 0.00 0.00 62 1014.4
20260504183100 73 65 3.0 9.0 0.00 0.00 0.00 62 1014.3
20260504181600 73 91 4.0 10.0 0.00 0.00 0.00 63 1014.2
20260504180014 73 140 3.0 9.0 0.00 0.00 0.00 66 1014.2
20260504174625 75 355 2.0 6.0 0.00 0.00 0.00 63 1014.4
20260504173107 76 110 1.0 4.0 0.00 0.00 0.00 66 1014.8
20260504171657 74 82 2.0 6.0 0.00 0.00 0.00 68 1015.1
20260504170119 75 124 1.0 5.0 0.00 0.00 0.00 67 1015.1
20260504160200 74 48 3.0 5.0 0.00 0.00 0.00 66 1015.6
20260504150157 74 223 2.0 7.0 0.00 0.00 0.00 66 1015.7
20260504140118 76 257 3.0 11.0 0.00 0.00 0.00 61 1015.8
20260504090111 72 343 1.0 3.0 0.00 0.00 0.00 65 1016.1
20260504081503 70 91 0.0 3.0 0.00 0.00 0.00 73 1016.2